Regional Weather Roundup
Issued by NWS Sioux Falls, SD

Home | Current Version | Previous Version | Text Only | Print | Product List | Glossary On
Versions: 1 2 3 4 5 6 7 8 9 10 11 12 13 14 15 16 17 18 19 20 21 22 23 24 25 26 27 28 29 30 31 32 33 34 35 36 37 38 39 40 41 42 43 44 45 46 47 48 49 50
000
ASUS43 KFSD 261110
RWRFSD

WEATHER ROUNDUP FOR SE SOUTH DAKOTA/SW MINNESOTA/NW IOWA
NATIONAL WEATHER SERVICE SIOUX FALLS SD
600 AM CDT SUN MAR 26 2017

NOTE: "FAIR" INDICATES FEW OR NO CLOUDS BELOW 12,000 FEET WITH NO
SIGNIFICANT WEATHER AND OR OBSTRUCTIONS TO VISIBILITY.


SDZ038>040-050-052>070-261200-
SOUTHEAST SOUTH DAKOTA

CITY           SKY/WX    TMP DP  RH WIND       PRES   REMARKS
BROOKINGS      CLOUDY    35  35 100 NE3       29.91S FOG
CHAMBERLAIN    CLOUDY    40  40  99 CALM      29.89F
HURON          CLOUDY    38  38 100 E3        29.93R
MADISON        FOG       34  34 100 CALM      29.91S VSB<1/4
MITCHELL       CLOUDY    38  38 100 E5        29.93S FOG
SIOUX FALLS    CLOUDY    38  37  97 N3        29.92R FOG
WINNER         CLOUDY    40  38  93 SE5       29.87F
YANKTON        CLOUDY    37  36  93 NE5       29.91S
$$

MNZ071-072-080-081-089-090-097-098-261200-
SOUTHWEST MINNESOTA

CITY           SKY/WX    TMP DP  RH WIND       PRES   REMARKS
FAIRMONT       MIX PCPN  36  36 100 NE7       29.91R FOG
JACKSON        FOG       36  36 100 N7        29.91R VSB 1
LUVERNE        CLOUDY    36  34  93 CALM      29.92R FOG
MARSHALL       CLOUDY    36  35  96 N5        29.94S FOG
MONTEVIDEO     CLOUDY    36  36 100 NE5       29.97R
PIPESTONE      SNOW      36  34  93 NE3       29.90S VSB 1/4
REDWOOD FALLS  LGT RAIN  37  35  92 N3        29.93S FOG
TRACY          CLOUDY    37  37 100 NE5       29.92S FOG
WINDOM         DRZL/FOG  36  36 100 N7        29.91S VSB 3/4
WORTHINGTON    FOG       35  35 100 NE7       29.90S VSB 1/2 WCI  29
$$

IAZ001>003-012>014-020>022-031-032-NEZ013-014-SDZ071-261200-
NORTHWEST IOWA

CITY           SKY/WX    TMP DP  RH WIND       PRES   REMARKS
CHEROKEE       CLOUDY    37  37 100 N5        29.89S FOG
ESTHERVILLE    FOG       35  35 100 N7        29.89R VSB 3/4 WCI  29
LE MARS        CLOUDY    37  37 100 N3        29.92R FOG
ORANGE CITY    CLOUDY    37  37 100 NE5       29.90R FOG
SHELDON        CLOUDY    36  36 100 NE6       29.88S FOG
SIOUX CITY     CLOUDY    39  38  96 N5        29.91R
SPENCER        CLOUDY    37  36  96 NE6       29.89S
STORM LAKE     CLOUDY    36  36 100 N8        29.88S FOG
$$

ABBREVIATIONS USED IN REMARKS
   TC - TEMPERATURE IN CELSIUS
  WCI - WIND CHILL INDEX
   HX - HEAT INDEX
  VSB - VISIBILITY




USA.gov is the U.S. government's official web portal to all federal, state and local government web resources and services.